Location: Foligno
(42.9600°N, 12.7050°E)
Time: 00:35:44
(UTC+02:00)

ISS - Pass Details

Date: 14 July 2018
Orbit: 402 x 408 km, 51.6° (Epoch: 19 July)

Event Time Altitude Azimuth Distance (km) Brightness Sun altitude
Rises 04:13:55 0° 298° (WNW) 2,331 -0.1 -13.4°
Reaches altitude 10° 04:16:28 10° 318° (NW) 1,471 -0.9 -13.1°
Maximum altitude 04:18:50 18° 4° (N) 1,082 -1.0 -12.8°
Drops below altitude 10° 04:21:12 10° 50° (NE) 1,472 0.5 -12.5°
Sets 04:23:45 0° 70° (ENE) 2,333 1.3 -12.1°
